HAWK-5B (52756 NORAD) Tracking and Keplerian Element Data

This shows tracking and keplerian element data for the satellite.

Feedback or suggestion? Click here.




ElementValue
Catalog52756
NameHAWK-5B
Epoch Orbit708
Epoch Day192.5886906
Epoch Year2022
RAAN306.8543
Inclination97.5131
Eccentricity0.0012093
Argument of Perigee77.6537
Mean Anonmoly282.6046
Mean Motion15.1260501
Decay Rate2.504E-05
L11 52756U 22057AA 22192.58869060 .00002504 00000+0 14693-3 0 9995
L22 52756 97.5131 306.8543 0012093 77.6537 282.6046 15.12605010 7086

Live tracking and technical data element details for HAWK-5B (NORAD 52756). HAWK-5B can be tracked NOW for your location showing map with azimuth and elevation plus other details from your city location.

Track the satellite on the map from your city or location and see movement details for azimuth, elevation, latitude, longitude, range, height, and movement on the map or in text.







IsCatalogInMostPopularTable: catalog: 52756, numindb: 3
Update: records affected: 1



GetName: 52756 HAWK-5B

Hit Count: updated at: Sat, 13 Aug 2022 23:56:24 GMT